www.pogodaiklimat.ru

Погода и климат >> Архив погоды >> Мальдивы >> Kaadedhdhoo


ПОГОДА в Kaadedhdhoo

  • Прогноз погоды в Kaadedhdhoo
  • Монитор погоды в Kaadedhdhoo
  • Климат города

АРХИВ ПОГОДЫ в Kaadedhdhoo

Время (UTC), дата Ветер
(напр.,м/с)
 
Видим.   Явления Облачность Т
(С)
Тd
(С)
f
(%)
Тe
(С)
Тes
(С)
Комфортность P
(гПа)
Po
(гПа)
Тmin
(С)
Tmax
(С)
R
(мм)
R24
(мм)
S
(см)
21 10.10 С 5 12 км 9/3 540 м
[Cu med, cong Ac trans Ci sp]
+27.8 +25.2 86 +40 +40 очень
душно
1009.2 1009.1
03 11.10 СЗ 6 12 км 9/3 540 м
[Cu med, cong Ac trans Ci sp]
+29.0 +24.7 78 +41 +42 опасность
перегрева
1011.6 1011.5 +27.0
06 11.10 С 5 12 км 9/3 540 м
[Cu med, cong Ac trans Cs]
+30.2 +25.7 77 +45 +49 опасность
перегрева
1011.5 1011.4
09 11.10 С 5 12 км 9/5 500 м
[Cb cap Ac trans Cs]
+30.0 +25.5 77 +44 +47 опасность
перегрева
1009.3 1009.2
12 11.10 С 5 12 км 9/3 540 м
[Cu med, cong Ac trans Cs]
+29.8 +24.0 71 +41 +42 опасность
перегрева
1009.4 1009.3 +31.0
15 11.10 С 4 12 км 9/4 540 м
[Cu med, cong Ac trans Cs]
+27.8 +24.6 83 +39 +39 очень
душно
1011.4 1011.3
18 11.10 С 3 12 км 9/3 540 м
[Cu med, cong Ac trans Cs]
+27.4 +24.2 83 +38 +38 очень
душно
1012.1 1012.0
21 11.10 СЗ 2 12 км 9/3 540 м
[Cu med, cong Ac trans Cs]
+26.5 +24.8 90 +38 +38 очень
душно
1010.2 1010.1
00 12.10 С 2 12 км 8/4 500 м
[Cb cap Ac trans Cs]
+26.5 +24.6 89 +37 +37 очень
душно
1010.4 1010.3
03 12.10 СЗ 4 15 км 5/5 540 м
[Cu med, cong Ci sp]
+29.0 +24.9 79 +42 +43 опасность
перегрева
1011.7 1011.6 +25.1
06 12.10 С 2 15 км 4/3 540 м
[Cu med, cong Ci sp]
+30.0 +24.9 74 +43 +56 опасность
перегрева
1011.9 1011.8
09 12.10 С 3 15 км 5/4 540 м
[Cb cap Ci sp]
+30.0 +24.6 73 +43 +51 опасность
перегрева
1009.8 1009.7
15 12.10 нст 1 15 км 8/4 540 м
[Cb cap Ac trans Cs]
+27.8 +24.6 83 +39 +39 очень
душно
1012.0 1011.9
18 12.10 штиль 0 15 км 8/3 540 м
[Cu med, cong Ac trans Ci sp]
+25.6 +24.7 95 +36 +36 очень
душно
1012.7 1012.6
21 12.10 нст 1 15 км 9/3 540 м
[Cu med, cong Cs]
+25.3 +24.3 94 +35 +35 очень
душно
1011.2 1011.1
00 13.10 нст 1 15 км 9/3 540 м
[Cu med, cong Ac trans Cs]
+25.4 +24.2 93 +35 +35 очень
душно
1011.7 1011.6
03 13.10 Ю 3 18 км 4/3 540 м
[Cu med, cong Ac trans Ci sp]
+28.0 +24.9 83 +40 +43 очень
душно
1013.0 1012.9 +24.6
06 13.10 ЮЗ 3 18 км 4/1 540 м
[Cu med, cong Ci sp]
+30.0 +24.6 73 +43 +57 опасность
перегрева
1012.9 1012.8
09 13.10 ЮЗ 2 15 км 8/1 540 м
[Cu med, cong Ci sp]
+30.0 +24.3 72 +42 +55 опасность
перегрева
1010.6 1010.5
12 13.10 Ю 2 18 км 8/3 540 м
[Cu med, cong]
+29.4 +24.1 73 +41 +42 опасность
перегрева
1010.5 1010.4 +30.8
18 13.10 Ю 2 18 км 9/3 540 м
[Cu med, cong Ac trans Cs]
+27.3 +24.3 84 +38 +38 очень
душно
1013.6 1013.5
21 13.10 нст 1 18 км 9/3 540 м
[Cu med, cong Cs]
+25.8 +24.4 92 +36 +36 очень
душно
1011.9 1011.8
00 14.10 нст 1 18 км 8/3 540 м
[Cu med, cong Ci sp]
+24.4 +23.8 96 +33 +33 очень
душно
1012.0 1011.9
03 14.10 Ю 2 18 км 4/3 540 м
[Cu med, cong Ci fib]
+29.0 +24.7 78 +41 +45 опасность
перегрева
1014.0 1013.9 +24.0
06 14.10 ЮЗ 3 18 км 4/3 540 м
[Cu med, cong Ci fib]
+30.0 +24.3 72 +42 +54 опасность
перегрева
1013.4 1013.3
09 14.10 З 2 18 км 4/3 540 м
[Cu med, cong Ci fib]
+30.8 +24.8 70 +44 +56 опасность
перегрева
1010.9 1010.8
12 14.10 нст 1 18 км 3/3 540 м
[Cu med, cong Ci fib]
+30.4 +24.1 69 +42 +44 опасность
перегрева
1010.6 1010.5 +31.2
15 14.10 штиль 0 18 км 3/3 540 м
[Cu med, cong Ci fib]
+26.5 +24.3 88 +37 +37 очень
душно
1013.0 1012.9
18 14.10 штиль 0 18 км 3/3 540 м
[Cu med, cong Ci fib]
+25.0 +23.8 93 +34 +34 очень
душно
1013.9 1013.8
21 14.10 штиль 0 18 км 3/3 540 м
[Cu med, cong Ci fib]
+24.1 +23.4 96 +32 +32 очень
душно
1012.0 1011.9
00 15.10 нст 1 18 км 3/3 540 м
[Cu med, cong Ci fib]
+23.8 +23.2 96 +32 +32 очень
душно
1011.6 1011.5
03 15.10 нст 1 18 км 3/3 540 м
[Cu med, cong Ci fib]
+28.8 +24.5 78 +41 +45 опасность
перегрева
1013.2 1013.1 +23.4
06 15.10 СВ 2 18 км 4/3 540 м
[Cu med, cong Ci fib]
+30.0 +24.6 73 +43 +57 опасность
перегрева
1012.7 1012.6
09 15.10 нст 1 18 км 5/4 540 м
[Cu med, cong Ci fib]
+29.6 +24.4 74 +42 +53 опасность
перегрева
1010.8 1010.7
12 15.10 нст 1 18 км 3/3 540 м
[Cu med, cong Ci fib]
+29.8 +24.4 73 +42 +44 опасность
перегрева
1010.9 1010.8 +30.8
15 15.10 штиль 0 18 км 3/3 540 м
[Cu med, cong Ci fib]
+26.0 +23.8 88 +36 +36 очень
душно
1013.4 1013.3
18 15.10 штиль 0 18 км 3/1 540 м
[Cu hum Ci fib]
+24.7 +23.5 93 +33 +33 очень
душно
1014.2 1014.1
21 15.10 штиль 0 18 км 4/3 540 м
[Cu hum Ci fib]
+24.0 +23.4 96 +32 +32 очень
душно
1012.9 1012.8
00 16.10 штиль 0 18 км 3/1 540 м
[Cu hum Ci fib]
+23.4 +23.1 98 +33 +33 очень
душно
1012.5 1012.4
03 16.10 З 2 18 км 4/3 540 м
[Cu med, cong Ci fib]
+28.8 +24.8 79 +41 +45 опасность
перегрева
1014.0 1013.9 +22.9
06 16.10 З 3 18 км 5/4 540 м
[Cu med, cong Ci fib]
+30.5 +24.8 72 +44 +53 опасность
перегрева
1013.4 1013.3
09 16.10 З 2 18 км 4/3 540 м
[Cu med, cong Ci fib]
+30.5 +24.3 70 +43 +54 опасность
перегрева
1011.2 1011.1
12 16.10 нст 1 18 км 4/3 540 м
[Cu med, cong Ci fib]
+29.6 +24.4 74 +42 +43 опасность
перегрева
1011.3 1011.2 +31.2
15 16.10 нст 1 18 км 4/3 540 м
[Cu med, cong Ci sp]
+27.6 +24.4 83 +39 +39 очень
душно
1013.6 1013.5
18 16.10 штиль 0 18 км 4/3 540 м
[Cu med, cong Ci fib]
+25.6 +24.4 93 +36 +36 очень
душно
1014.2 1014.1
21 16.10 штиль 0 18 км 4/3 540 м
[Cu med, cong Ci sp]
+25.0 +24.1 95 +34 +34 очень
душно
1012.2 1012.1
00 17.10 штиль 0 18 км 4/3 540 м
[Cu med, cong Ci fib]
+24.8 +24.2 96 +34 +34 очень
душно
1012.1 1012.0
03 17.10 З 2 18 км 6/3 540 м
[Cu med, cong Ci fib]
+29.0 +24.7 78 +41 +45 опасность
перегрева
1014.1 1014.0 +24.2
06 17.10 нст 1 18 км 8/3 540 м
[Cu med, cong Ci sp]
+29.5 +24.5 75 +42 +55 опасность
перегрева
1013.7 1013.6
09 17.10 нст 1 18 км 8/3 540 м
[Cu med, cong Ci sp]
+31.2 +24.7 68 +44 +56 опасность
перегрева
1010.6 1010.5
12 17.10 нст 1 18 км 5/4 540 м
[Cu med, cong Ci sp]
+30.3 +24.0 69 +42 +43 опасность
перегрева
1010.9 1010.8 +31.8

 

Местоположение метеостанции Kaadedhdhoo (Мальдивы): широта 0.48 долгота 72.98 высота над уровнем моря 2 м.

В архиве по умолчанию представлена погода в Kaadedhdhoo за последнюю неделю. Архивные данные за месяц целиком и за предыдущие месяцы, начиная с января 2011 года, Вы можете получить, выбрав интересующий диапазон дат из раскрывающегося списка и нажав кнопку "Ввод!".


*Определитесь, кто Вы:
робот инопланетянин человек

Внимание! Время в таблицах - всемирное. Для получения местного времени необходимо прибавить поправку, которая в Kaadedhdhoo равна 5 ч.

Смотрите также архив погоды в соседних городах и на ближайших метеорологических станциях:

Погода в Gan (Мальдивы) (130 км)
Погода в Kadhdhoo (Мальдивы) (166 км)
Погода в Male (Мальдивы) (418 км)
Погода в Hanimaadhoo (Мальдивы) (695 км)
Погода в Minicoy (Lakshadweep, Индия) (870 км)
Погода в Kanyakumari (Tamil Nadu, Индия) (983 км)
Погода в Thiruvananthapuram Air (Kerala, Индия) (992 км)
Погода в Thiruvananthapuram (Kerala, Индия) (993 км)
Погода в Galle (Шри Ланка) (1013 км)
Погода в Ratmalana (Шри Ланка) (1041 км)

Пояснения к столбцам:

Ветер - указаны скорость ветра в м/с - средняя за 10 мин, порывы в срок и между сроками (в фигурных скобках) и направление, откуда дует ветер: С - северный, СВ - северо-восточный, В - восточный, ЮВ - юго-восточный, Ю - южный, ЮЗ - юго-западный, З - западный, СЗ - северо-западный.
Видимость - горизонтальная дальность видимости в метрах или километрах. При видимости от 1 до 10 км при отсутствии осадков обычно наблюдается дымка, при ухудшении видимости до 1 км и менее - туман. В сухую погоду видимость может ухудшаться дымом, пылью или мглою.
Явления - указаны атмосферные явления, наблюдавшиеся в срок или в последний час перед сроком; фигурными скобками обозначены явления, наблюдавшиеся между сроками (за 1-3 часа до срока); квадратными скобками обозначены град или гололедные отложения с указанием их диаметра в мм.
Облачность - указаны через наклонную черту общая и нижняя облачность в баллах и высота нижней границы облаков в метрах; квадратными скобками обозначены формы облаков: Ci - перистые, Cs - перисто-слоистые, Cc - перисто-кучевые, Ac - высококучевые, As - высокослоистые, Sc - слоисто-кучевые, Ns - слоисто-дождевые, Cu - кучевые, Cb - кучево-дождевые. Подробнее классификацию облаков см. в Атласе облаков (PDF).
T - Температура воздуха - температура, измеренная на высоте 2 м над землей.
Td - Температура точки росы - температура, при понижении до которой содержащийся в воздухе водяной пар достигнет насыщения.
f - Относительная влажность воздуха - влажноcть воздуха, измеренная на высоте 2 м над землей.
Te - Эффективная температура - температура, которую ощущает одетый по сезону человек в тени. Характеристика душности погоды. При расчете учитывается влияние влажности воздуха и скорости ветра на теплоощущения человека.
Tes - Эффективная температура на солнце - температура, которую ощущает человек, с поправкой на солнечный нагрев. Характеристика знойности погоды. Зависит от высоты солнца над горизонтом, облачности и скорости ветра. Ночью, в пасмурную погоду, а также при ветре 12 м/с и более поправка равна нулю.
P - Атмосферное давление - приведенное к уровню моря атмосферное давление.
Po - Атмосферное давление - измеренное на уровне метеостанции атмосферное давление.
Tmin - Минимальная температура - минимум температуры воздуха на высоте 2 м над землей.
Tmax - Максимальная температура - максимум температуры воздуха на высоте 2 м над землей.
R - Количество осадков - Количество выпавших осадков за период времени, мм. При наведении курсора мыши на число - период времени, за который выпало указанное количество осадков.
R24 - Количество осадков - Количество выпавших осадков за 24 часа, мм.
S - Снежный покров - Высота снежного покрова, см. При наведении курсора мыши на число - состояние снежного покрова и степень покрытия местности в баллах.